Weather History for KDOV - January, 2014

Change the Weather History Date:

Saturday, January 18, 2014

  Actual Average Record
Temperature  
Mean Temperature 31 °F -  
Max Temperature 39 °F 41 °F 69 °F (1986)
Min Temperature 22 °F 24 °F -1 °F (1957)
Degree Days  
Heating Degree Days 34    
Moisture  
Dew Point 24 °F    
Average Humidity 74    
Maximum Humidity 100    
Minimum Humidity 49    
Precipitation  
Precipitation 0.00 in - - ()
Sea Level Pressure  
Sea Level Pressure 29.84 in    
Wind  
Wind Speed 12 mph (West)    
Max Wind Speed 22 mph    
Max Gust Speed 29 mph    
Visibility 10 miles    
Events      
Averages and records for this station are not official NWS values.
T = Trace of Precipitation, MM = Missing Value Source: NWS Daily Summary

Daily Weather History Graph

Daily Weather History Graph

Search for Another Location

Airport or City:

Trip Planner

Search our weather history database for the weather conditions in past years. The results will help you decide how hot, cold, wet, or windy it might be!

Date:

Astronomy

Jan. 18, 2014 Rise Set
Actual Time 7:18 AM EST 5:06 PM EST
Civil Twilight 6:49 AM EST 5:35 PM EST
Nautical Twilight 6:16 AM EST 6:08 PM EST
Astronomical Twilight 5:44 AM EST 6:40 PM EST
Moon 7:45 PM EST (1/18) 8:18 AM EST (1/18)
Length of Visible Light 10h 46m
Length of Day
9h 48m
Waning Gibbous, 94% of the Moon is Illuminated
Jan 18
Waning Gibbous
Jan 24
Last Quarter
Jan 30
New
Feb 6
First Quarter
Feb 14
Full

Hourly Weather History & Observations

Time (EST) Temp. Windchill Dew Point Humidity Pressure Visibility Wind Dir Wind Speed Gust Speed Precip Events Conditions
12:58 AM 38.3 °F - 38.3 °F 100% 29.80 in 10.0 mi SSE 2.3 mph - N/A   Partly Cloudy
1:58 AM 39.6 °F 37.4 °F 39.4 °F 99% 29.77 in 10.0 mi SSE 3.5 mph - N/A   Overcast
2:58 AM 38.5 °F 35.0 °F 38.3 °F 99% 29.76 in 10.0 mi SSE 4.6 mph - N/A   Mostly Cloudy
3:58 AM 39.7 °F 34.3 °F 39.4 °F 99% 29.75 in 10.0 mi SW 8.1 mph - N/A   Clear
4:58 AM 39.6 °F 32.5 °F 39.2 °F 99% 29.74 in 10.0 mi West 11.5 mph - N/A   Partly Cloudy
5:58 AM 35.4 °F 26.8 °F 35.2 °F 99% 29.75 in 10.0 mi West 12.7 mph 23.0 mph N/A   Clear
6:53 AM 33.8 °F 23.9 °F 33.8 °F 100% 29.75 in 10.0 mi WNW 15.0 mph 24.2 mph N/A   Scattered Clouds
6:58 AM 34.2 °F 23.3 °F 34.0 °F 99% 29.76 in 10.0 mi WNW 18.4 mph 27.6 mph N/A   Scattered Clouds
7:03 AM 33.8 °F 22.8 °F 33.8 °F 100% 29.75 in 10.0 mi NW 18.4 mph 27.6 mph N/A   Mostly Cloudy
7:43 AM 33.8 °F 23.5 °F 32.0 °F 93% 29.77 in 10.0 mi WNW 16.1 mph - N/A   Scattered Clouds
7:58 AM 34.0 °F 22.4 °F 29.5 °F 84% 29.79 in 10.0 mi WNW 20.7 mph 25.3 mph N/A   Mostly Cloudy
8:58 AM 34.0 °F 24.2 °F 27.5 °F 77% 29.82 in 10.0 mi WNW 15.0 mph - N/A   Clear
9:58 AM 34.9 °F 23.3 °F 25.5 °F 69% 29.84 in 10.0 mi West 21.9 mph 28.8 mph N/A   Scattered Clouds
10:53 AM 35.6 °F 24.2 °F 26.6 °F 70% 29.82 in 10.0 mi WNW 21.9 mph 26.5 mph N/A   Mostly Cloudy
10:58 AM 35.6 °F 24.8 °F 26.4 °F 69% 29.83 in 10.0 mi WNW 19.6 mph 26.5 mph N/A   Scattered Clouds
11:58 AM 37.0 °F 26.4 °F 23.7 °F 59% 29.82 in 10.0 mi West 20.7 mph 26.5 mph N/A   Mostly Cloudy
12:58 PM 35.2 °F 24.1 °F 20.7 °F 55% 29.82 in 10.0 mi West 20.7 mph 26.5 mph N/A   Clear
1:58 PM 33.4 °F 21.7 °F 16.3 °F 50% 29.83 in 10.0 mi West 20.7 mph 27.6 mph N/A   Clear
2:58 PM 32.5 °F 20.5 °F 15.6 °F 50% 29.85 in 10.0 mi West 20.7 mph 26.5 mph N/A   Clear
3:58 PM 30.9 °F 19.1 °F 13.6 °F 49% 29.88 in 10.0 mi West 18.4 mph 26.5 mph N/A   Clear
4:58 PM 28.8 °F 16.6 °F 12.7 °F 51% 29.90 in 10.0 mi West 17.3 mph 24.2 mph N/A   Clear
5:58 PM 27.5 °F 15.4 °F 12.2 °F 53% 29.91 in 10.0 mi West 16.1 mph 23.0 mph N/A   Clear
6:58 PM 26.6 °F 14.7 °F 11.8 °F 54% 29.94 in 10.0 mi West 15.0 mph 21.9 mph N/A   Clear
7:58 PM 25.7 °F 14.6 °F 11.7 °F 55% 29.95 in 10.0 mi West 12.7 mph - N/A   Clear
8:58 PM 24.6 °F 14.4 °F 11.8 °F 58% 29.96 in 10.0 mi West 10.4 mph - N/A   Clear
9:58 PM 24.1 °F 14.4 °F 11.5 °F 59% 29.99 in 10.0 mi West 9.2 mph - N/A   Clear
10:58 PM 23.5 °F 12.4 °F 11.3 °F 60% 29.96 in 10.0 mi WNW 11.5 mph - N/A   Clear
11:58 PM 22.5 °F 15.1 °F 11.8 °F 64% 29.97 in 10.0 mi West 5.8 mph - N/A   Clear